Bei uns kannst du mitfliegen! Besuche uns und lerne uns kennen - als Gast, Pilot oder jemand der es werden möchte.

Kölner Klub für Luftsport e.V.

KKFL.de

Ausbildung – Fliegen – Abenteuer

Ausbildung im KKFL

Ausbildung

Fliegen lernen im Verein
Der KKFL.de bietet eine effiziente, schnelle Ausbildung zur Pivatpilotenlizenz (PPL) in verschiedenen Ausprägungen an. Nach der Ausbildung können diverse Ergänzungen vom Verstellpropeller bis hin zu Nachtflug oder das Fliegen nach Instrumentenflugregeln (IFR) angeschlossen werden.
Fliegen im Verein ist günstig!

Unsere Flotte

Cessna 172 S

D-EOCD
Die Cessna ist als schnelle Schul- und Reisemaschine gleichsam beliebt. Unsere vereins-eigene Flotte sorgt für Abwechlung bei den Piloten und unsere Werft senkt Kosten. In der Ausbildung dürfen Schüler über 'ihre Maschine' mit entscheiden.

Cessna 172 R

D-EFPB

Piper PA 28 II

D-EFPA

Aquila A210

D-EAQJ

Piper PA 28 II

D-ELFF

Flugplatz Hangelar


[Quelle: ADDS]
METAR
EDDK 241150Z VRB04KT CAVOK 28/10 Q1020 NOSIG =
EDDK 241100Z 2412/2518 11004KT CAVOK
TAF
EDDK 241100Z 2412/2518 11004KT CAVOK =
SR / SS: 04:32 / 18:35 UTC (EDKB 2019-08-24)

Du willst fliegen?

Während unserer Bürozeiten und auch dazwischen sind wir für deine Fragen da.
Bitte kontaktiere den Verein unter den angegebenen Adressen.
© 2019 - Kölner Klub für Luftsport e.V.
Bonn / Hangelar - EDKB - Germany